RYS101 LDSP-LDZA

Flight info

Callsign RYS101
Flight time 0h 32m
Altitude 20000
Route SIRMI M725 RUDIK
Aircraft B38M/M-SDE1FGHILORVWXY/HB1

Departure

Time 2026-04-27 10:22
Airport Split Saint Jerome Airport (LDSP)

Arrival

Time 2026-04-27 10:55
Airport Zagreb Franjo Tuđman International Airport (LDZA)
Time Latitude Longitude Altitude Speed Heading
2026-04-27 09:38 43.53727 16.29865 70 ft 0 kts 113°
2026-04-27 10:06 43.53734 16.29834 62 ft 4 kts 95°
2026-04-27 10:07 43.53733 16.29798 63 ft 4 kts 81°
2026-04-27 10:07 43.53732 16.29790 63 ft 1 kts 81°
2026-04-27 10:10 43.53732 16.29791 70 ft 1 kts 82°
2026-04-27 10:10 43.53728 16.29804 63 ft 2 kts 125°
2026-04-27 10:11 43.53712 16.29806 65 ft 3 kts 205°
2026-04-27 10:11 43.53710 16.29784 60 ft 2 kts 293°
2026-04-27 10:11 43.53724 16.29749 70 ft 6 kts 297°
2026-04-27 10:11 43.53710 16.29705 64 ft 6 kts 232°
2026-04-27 10:12 43.53677 16.29648 65 ft 9 kts 232°
2026-04-27 10:12 43.53668 16.29594 68 ft 0 kts 317°
2026-04-27 10:18 43.53671 16.29590 69 ft 2 kts 317°
2026-04-27 10:19 43.53688 16.29568 65 ft 2 kts 311°
2026-04-27 10:19 43.53688 16.29566 66 ft 1 kts 309°
2026-04-27 10:19 43.53695 16.29537 76 ft 5 kts 279°
2026-04-27 10:19 43.53690 16.29461 87 ft 12 kts 247°
2026-04-27 10:20 43.53633 16.29322 87 ft 20 kts 234°
2026-04-27 10:20 43.53536 16.29149 90 ft 25 kts 231°
2026-04-27 10:20 43.53423 16.28945 93 ft 29 kts 235°
2026-04-27 10:20 43.53290 16.28704 88 ft 33 kts 231°
2026-04-27 10:21 43.53198 16.28617 85 ft 11 kts 209°
2026-04-27 10:21 43.53202 16.28570 88 ft 5 kts 354°
2026-04-27 10:21 43.53244 16.28624 89 ft 3 kts 53°
2026-04-27 10:21 43.53248 16.28632 88 ft 4 kts 53°
2026-04-27 10:22 43.53469 16.29030 89 ft 98 kts 52°
2026-04-27 10:22 43.54057 16.30080 74 ft 175 kts 52°
2026-04-27 10:22 43.54864 16.31540 621 ft 208 kts 56°
2026-04-27 10:22 43.55437 16.33290 1974 ft 196 kts 83°
2026-04-27 10:23 43.55673 16.35280 2844 ft 225 kts 70°
2026-04-27 10:23 43.56552 16.37175 3757 ft 243 kts 60°
2026-04-27 10:23 43.56943 16.39374 4925 ft 237 kts 91°
2026-04-27 10:23 43.57138 16.41691 5987 ft 247 kts 67°
2026-04-27 10:24 43.58218 16.43595 6962 ft 264 kts 34°
2026-04-27 10:24 43.59986 16.44409 7811 ft 279 kts
2026-04-27 10:24 43.61838 16.43710 8985 ft 280 kts 328°
2026-04-27 10:24 43.63409 16.42094 10031 ft 285 kts 326°
2026-04-27 10:25 43.65159 16.40612 10533 ft 308 kts 331°
2026-04-27 10:25 43.67094 16.39219 10582 ft 317 kts 334°
2026-04-27 10:25 43.69116 16.37908 10694 ft 323 kts 336°
2026-04-27 10:25 43.71152 16.36674 10838 ft 325 kts 337°
2026-04-27 10:26 43.73240 16.35457 10957 ft 326 kts 337°
2026-04-27 10:26 43.75335 16.34258 11006 ft 326 kts 338°
2026-04-27 10:26 43.77434 16.33070 10998 ft 325 kts 338°
2026-04-27 10:26 43.79532 16.31891 11003 ft 325 kts 338°
2026-04-27 10:27 43.81633 16.30715 11000 ft 325 kts 338°
2026-04-27 10:27 43.83734 16.29538 11009 ft 325 kts 338°
2026-04-27 10:27 43.85833 16.28363 11006 ft 325 kts 338°
2026-04-27 10:27 43.87934 16.27187 11008 ft 326 kts 338°
2026-04-27 10:28 43.90033 16.26010 11007 ft 326 kts 338°
2026-04-27 10:28 43.92136 16.24831 11011 ft 326 kts 338°
2026-04-27 10:28 43.94236 16.23653 11009 ft 326 kts 338°
2026-04-27 10:28 43.96303 16.22505 11013 ft 327 kts 340°
2026-04-27 10:29 43.98549 16.22105 11678 ft 327 kts
2026-04-27 10:29 44.00764 16.22847 12717 ft 331 kts 18°
2026-04-27 10:29 44.02954 16.23940 13621 ft 337 kts 19°
2026-04-27 10:29 44.05168 16.25085 14482 ft 342 kts 19°
2026-04-27 10:30 44.07404 16.26264 15313 ft 346 kts 19°
2026-04-27 10:30 44.09660 16.27472 16123 ft 350 kts 20°
2026-04-27 10:30 44.11943 16.28704 16900 ft 354 kts 20°
2026-04-27 10:30 44.14269 16.29903 17679 ft 357 kts 13°
2026-04-27 10:31 44.16730 16.30263 18479 ft 358 kts 359°
2026-04-27 10:31 44.19246 16.30312 19071 ft 363 kts 359°
2026-04-27 10:31 44.21780 16.30347 19755 ft 366 kts 359°
2026-04-27 10:31 44.24358 16.30369 20037 ft 371 kts 359°
2026-04-27 10:32 44.26946 16.30384 20143 ft 374 kts 359°
2026-04-27 10:32 44.29552 16.30395 20148 ft 375 kts 359°
2026-04-27 10:32 44.32159 16.30404 20146 ft 375 kts 359°
2026-04-27 10:32 44.34768 16.30413 20167 ft 375 kts 359°
2026-04-27 10:33 44.37375 16.30420 20148 ft 375 kts 359°
2026-04-27 10:33 44.39986 16.30428 20177 ft 375 kts 359°
2026-04-27 10:33 44.42559 16.30435 20161 ft 374 kts 359°
2026-04-27 10:33 44.45162 16.30442 20177 ft 374 kts 359°
2026-04-27 10:34 44.47767 16.30449 20169 ft 374 kts 359°
2026-04-27 10:34 44.50371 16.30456 20174 ft 374 kts 359°
2026-04-27 10:34 44.52919 16.30463 20196 ft 358 kts 358°
2026-04-27 10:34 44.55364 16.30470 20162 ft 345 kts 358°
2026-04-27 10:35 44.57734 16.30477 19949 ft 338 kts 358°
2026-04-27 10:35 44.60078 16.30484 19597 ft 335 kts 358°
2026-04-27 10:35 44.62405 16.30489 19244 ft 334 kts 358°
2026-04-27 10:35 44.64721 16.30496 18893 ft 332 kts 358°
2026-04-27 10:36 44.67024 16.30502 18537 ft 330 kts 359°
2026-04-27 10:36 44.69314 16.30508 18144 ft 328 kts 358°
2026-04-27 10:36 44.71588 16.30515 17775 ft 325 kts 358°
2026-04-27 10:36 44.73841 16.30521 17420 ft 322 kts 358°
2026-04-27 10:37 44.76082 16.30527 17078 ft 320 kts 359°
2026-04-27 10:37 44.78300 16.30533 16737 ft 317 kts 358°
2026-04-27 10:37 44.80467 16.30538 16400 ft 314 kts 358°
2026-04-27 10:37 44.82647 16.30544 16061 ft 312 kts 359°
2026-04-27 10:38 44.84806 16.30551 15732 ft 309 kts 358°
2026-04-27 10:38 44.86951 16.30557 15402 ft 308 kts 358°
2026-04-27 10:38 44.89084 16.30562 15065 ft 306 kts 358°
2026-04-27 10:38 44.91205 16.30567 14740 ft 304 kts 358°
2026-04-27 10:39 44.93318 16.30573 14418 ft 303 kts 358°
2026-04-27 10:39 44.95425 16.30580 14078 ft 303 kts 358°
2026-04-27 10:39 44.97527 16.30561 13707 ft 302 kts 357°
2026-04-27 10:39 44.99620 16.30410 13298 ft 300 kts 346°
2026-04-27 10:40 45.01591 16.29490 12954 ft 297 kts 339°
2026-04-27 10:40 45.03526 16.28502 12653 ft 294 kts 339°
2026-04-27 10:40 45.05434 16.27522 12354 ft 290 kts 339°
2026-04-27 10:40 45.07322 16.26550 12043 ft 288 kts 339°
2026-04-27 10:41 45.09196 16.25581 11739 ft 286 kts 339°
2026-04-27 10:41 45.11060 16.24619 11424 ft 284 kts 339°
2026-04-27 10:41 45.12905 16.23665 11122 ft 281 kts 339°
2026-04-27 10:41 45.14742 16.22714 10831 ft 283 kts 339°
2026-04-27 10:42 45.16597 16.21753 10619 ft 281 kts 339°
2026-04-27 10:42 45.18409 16.20812 10476 ft 273 kts 339°
2026-04-27 10:42 45.20159 16.19904 10349 ft 264 kts 338°
2026-04-27 10:42 45.21842 16.18987 10081 ft 261 kts 332°
2026-04-27 10:43 45.23284 16.17427 9661 ft 262 kts 316°
2026-04-27 10:43 45.24631 16.15671 9287 ft 264 kts 317°
2026-04-27 10:43 45.25983 16.13908 8957 ft 264 kts 316°
2026-04-27 10:43 45.27328 16.12135 8654 ft 263 kts 316°
2026-04-27 10:44 45.28662 16.10371 8366 ft 262 kts 316°
2026-04-27 10:44 45.29990 16.08610 8068 ft 260 kts 316°
2026-04-27 10:44 45.31303 16.06866 7865 ft 258 kts 316°
2026-04-27 10:44 45.32623 16.05112 7717 ft 261 kts 316°
2026-04-27 10:45 45.33920 16.03378 7485 ft 262 kts 316°
2026-04-27 10:45 45.35250 16.01610 7302 ft 262 kts 316°
2026-04-27 10:45 45.36571 15.99842 7151 ft 260 kts 316°
2026-04-27 10:45 45.37890 15.98084 6995 ft 260 kts 316°
2026-04-27 10:46 45.39209 15.96325 6820 ft 260 kts 316°
2026-04-27 10:46 45.40533 15.94553 6491 ft 263 kts 317°
2026-04-27 10:46 45.41871 15.92766 6146 ft 265 kts 317°
2026-04-27 10:46 45.43225 15.90951 5766 ft 270 kts 317°
2026-04-27 10:47 45.44479 15.89268 5415 ft 273 kts 317°
2026-04-27 10:47 45.45829 15.87460 5054 ft 277 kts 317°
2026-04-27 10:47 45.47243 15.85565 4649 ft 282 kts 317°
2026-04-27 10:47 45.48676 15.83643 4240 ft 282 kts 317°
2026-04-27 10:48 45.50082 15.81755 3855 ft 273 kts 317°
2026-04-27 10:48 45.51470 15.79991 3515 ft 263 kts 327°
2026-04-27 10:48 45.53108 15.79103 3358 ft 242 kts 356°
2026-04-27 10:48 45.54686 15.79352 3302 ft 221 kts 22°
2026-04-27 10:49 45.56042 15.80216 3294 ft 208 kts 30°
2026-04-27 10:49 45.57212 15.81314 3141 ft 195 kts 40°
2026-04-27 10:49 45.58193 15.82560 3094 ft 184 kts 47°
2026-04-27 10:49 45.59093 15.83848 3063 ft 183 kts 49°
2026-04-27 10:50 45.59977 15.85156 3121 ft 183 kts 49°
2026-04-27 10:50 45.60858 15.86468 3052 ft 182 kts 49°
2026-04-27 10:50 45.61719 15.87779 2939 ft 180 kts 49°
2026-04-27 10:50 45.62580 15.89086 3007 ft 180 kts 49°
2026-04-27 10:51 45.63415 15.90352 2902 ft 171 kts 50°
2026-04-27 10:51 45.64226 15.91574 2896 ft 164 kts 49°
2026-04-27 10:51 45.64976 15.92721 2708 ft 155 kts 50°
2026-04-27 10:51 45.65696 15.93820 2549 ft 152 kts 50°
2026-04-27 10:52 45.66412 15.94916 2371 ft 150 kts 51°
2026-04-27 10:52 45.67135 15.96004 2160 ft 151 kts 48°
2026-04-27 10:52 45.67836 15.97064 1950 ft 145 kts 50°
2026-04-27 10:52 45.68528 15.98124 1779 ft 144 kts 49°
2026-04-27 10:53 45.69215 15.99165 1604 ft 144 kts 49°
2026-04-27 10:53 45.70562 16.01214 1133 ft 131 kts 47°
2026-04-27 10:53 45.71209 16.02199 961 ft 145 kts 49°
2026-04-27 10:54 45.71922 16.03262 871 ft 148 kts 47°
2026-04-27 10:54 45.72625 16.04352 598 ft 151 kts 48°
2026-04-27 10:54 45.73344 16.05433 407 ft 146 kts 47°
2026-04-27 10:54 45.73974 16.06388 366 ft 109 kts 48°
2026-04-27 10:55 45.74341 16.06952 364 ft 64 kts 46°
2026-04-27 10:55 45.74621 16.07378 365 ft 39 kts 46°
2026-04-27 10:55 45.74669 16.07528 367 ft 13 kts 128°
2026-04-27 10:55 45.74597 16.07619 361 ft 15 kts 138°
2026-04-27 10:56 45.74519 16.07726 361 ft 17 kts 137°
2026-04-27 10:56 45.74426 16.07850 362 ft 20 kts 136°
2026-04-27 10:56 45.74333 16.07879 362 ft 15 kts 223°
2026-04-27 10:56 45.74274 16.07866 365 ft 9 kts 122°
2026-04-27 10:57 45.74242 16.07917 361 ft 0 kts 136°